Location: Unspecified
(0.0000°N, 0.0000°E)
Time: 18:29:14
(UTC+00:00)

Explorer 11/Cluster Stage 4 - Visible Passes

Search period start: 10 August 2020 00:00
Search period end: 20 August 2020 00:00
Orbit: 467 x 1258 km, 28.8° (Epoch: 09 August)

Date Brightness Start Highest point End Pass type
(mag) Time Alt. Az. Time Alt. Az. Time Alt. Az.
10 Aug 9.0 04:20:09 10° NNW 04:23:34 16° NNE 04:26:37 10° ENE visible
10 Aug 7.8 18:52:04 10° WSW 18:58:46 61° NNW 19:06:39 10° NE visible
10 Aug 9.3 20:43:03 10° WNW 20:48:40 21° NNW 20:52:14 16° N visible
11 Aug 8.8 04:08:32 10° NNW 04:12:57 20° NNE 04:16:45 10° ENE visible
11 Aug 8.1 18:41:30 10° WSW 18:47:53 51° NNW 18:55:28 10° NE visible
11 Aug 9.5 20:32:55 10° WNW 20:37:53 18° NNW 20:42:50 11° NNE visible
12 Aug 8.5 03:58:51 16° NNW 04:02:18 25° NNE 04:06:42 10° E visible
12 Aug 8.3 18:31:01 10° W 18:37:03 42° NNW 18:44:13 10° NE visible
12 Aug 9.6 20:22:57 10° NW 20:27:09 16° NNW 20:31:35 10° NNE visible
13 Aug 8.2 03:49:46 27° N 03:51:36 31° NNE 03:56:29 10° E visible
13 Aug 6.5 05:34:42 10° WNW 05:40:30 62° SSW 05:45:06 10° SE visible
13 Aug 8.6 18:20:36 10° W 18:26:14 35° NNW 18:32:55 10° NE visible
13 Aug 9.7 20:13:14 10° NW 20:16:27 13° NNW 20:19:50 10° N visible
14 Aug 7.9 03:40:41 39° NNE 03:40:52 39° NNE 03:46:11 10° E visible
14 Aug 6.8 05:23:49 10° WNW 05:29:43 50° SSW 05:34:25 10° SE visible
14 Aug 9.8 20:04:05 10° NNW 20:05:48 11° NNW 20:07:33 10° N visible
15 Aug 7.9 03:31:33 41° ENE 03:31:33 41° ENE 03:35:45 10° ESE visible
15 Aug 7.1 05:13:45 13° W 05:18:54 41° SSW 05:23:41 10° SE visible
16 Aug 8.4 03:22:19 31° E 03:22:19 31° E 03:25:16 10° ESE visible
16 Aug 7.4 05:04:31 20° W 05:08:05 35° SSW 05:12:55 10° SSE visible
17 Aug 8.9 03:12:59 20° ESE 03:12:59 20° ESE 03:14:41 10° ESE visible
17 Aug 7.6 04:55:10 25° WSW 04:57:15 30° SSW 05:02:04 10° SSE visible
18 Aug 9.4 03:03:30 13° ESE 03:03:30 13° ESE 03:04:02 10° ESE visible
18 Aug 7.9 04:45:40 26° SW 04:46:24 26° SSW 04:51:11 10° SSE visible
19 Aug 8.2 04:36:03 23° SSW 04:36:03 23° SSW 04:40:15 10° SSE visible
